Regional Weather Roundup
Issued by NWS New Orleans/Baton Rouge, LA

Home | Current Version | Previous Version | Text Only | Print | Product List | Glossary On
Versions: 1 2 3 4 5 6 7 8 9 10 11 12 13 14 15 16 17 18 19 20 21 22 23 24 25 26 27 28 29 30 31 32 33 34 35 36 37 38 39 40 41 42 43 44 45 46 47 48 49 50
883
ASUS44 KLIX 290710
RWRLIX
NEW ORLEANS REGIONAL WEATHER ROUNDUP
NATIONAL WEATHER SERVICE NEW ORLEANS LA
100 AM CST SAT NOV 29 2014

NOTE: "FAIR" INDICATES FEW OR NO CLOUDS BELOW 12,000 FEET WITH NO
      SIGNIFICANT WEATHER AND/OR OBSTRUCTIONS TO VISIBILITY.
      SKY/WX - SKY CONDITION AND SIGNIFICANT WEATHER.
      TMP - AIR TEMPERATURE.     DP    - DEWPOINT TEMPERATURE.
      RH  - RELATIVE HUMIDITY.   PRES  - PRESSURE.
      HI  - HEAT INDEX.          WCI   - WIND CHILL INDEX.

*  THESE STATIONS ARE NOT NWS OR FAA STATIONS AND ARE NOT UNDER
   NWS QUALITY CONTROL.

LAZ038-040-048-061>063-065>067-069-290800-
SOUTHEAST LOUISIANA

CITY           SKY/WX    TMP DP  RH WIND       PRES   REMARKS
N.O. AUDUBON     N/A     50  49  97 MISG        N/A
N.O. INTL ARPT PTCLDY    50  45  83 SE7       30.24S
N.O. LAKEFRONT CLEAR     50  46  86 SE8       30.25F
N.O. DOWNTOWN*   N/A     55  45  67 S3        30.25S
SLIDELL        PTCLDY    37  34  89 CALM      30.23F
BATON ROUGE    CLEAR     48  44  86 SE6       30.20F
BOOTHVILLE     CLEAR     54  51  90 SE5       30.25F
BELLE CHASSE   PTCLDY    41  37  86 CALM      30.24F
BOGALUSA*        N/A     37  35  91 N3        30.25F
NEW ROADS*     CLOUDY    49  45  87 SE6       30.20S
GONZALES*        N/A     47  47 100 CALM      30.21F
HAMMOND*       CLEAR     41  39  93 CALM      30.23F
HOUMA*         CLEAR     47  47 100 CALM      30.23F FOG
PORT FOURCHON* CLOUDY    63  55  77 S5        30.26F

$$

MSZ070-080>082-290800-
SOUTHERN MISSISSIPPI

CITY           SKY/WX    TMP DP  RH WIND       PRES   REMARKS
MCCOMB         CLEAR     42  39  89 S5        30.21F
GULFPORT       CLEAR     39  36  89 CALM      30.25F
BILOXI         CLEAR     42  41  98 NE2       30.25F
PASCAGOULA     CLEAR     32  31  96 CALM      30.26F

$$

COASTAL OBSERVATIONS
LAKE AND NEARSHORE STATIONS

STATION/POSITION TIME  TEMP    WIND        PRES    WAVE
                       AIR SEA DIR/SP/G            HT/PER
                 (UTC) (F)     (DEG/KT/KT) (MB)    (FT/S)
PASCAGOULA       0700   49     130/  2/  4 1023.9
WAVELAND YACHT   0700   49      20/  1/  2 1023.3
GRAND ISLE       0700   62 59  160/  5/  9 1024.2
SOUTHWEST PASS   0700   62                 1024.1
NEW CANAL        0700   50 53  160/  3/  5 1024.2
SHELL BEACH      0700   52 52  170/  2/  2 1023.9

OFFSHORE STATIONS

STATION/POSITION TIME  TEMP    WIND        PRES    WAVE
                       AIR SEA DIR/SP/G            HT/PER
                 (UTC) (F)     (DEG/KT/KT) (MB)    (FT/S)
64 S DAUPHIN ISL 0650   62 70  150/  8/ 12 1024.9    2/ 5

$$




USA.gov is the U.S. government's official web portal to all federal, state and local government web resources and services.